User: anonymous   Login
Location: Unspecified
(0.0000°N, 0.0000°E)
Time: 05:30:58
(UTC+00:00)
Language:

Cosmos 1869 - Orbit

View from above orbital plane
View from above orbital plane
View from above satellite
View from above satellite

Ground track
Ground track

The orbit data is extracted from the following two-line orbital elements,

1 18214U 87062A   18017.21471326 -.00000056  00000-0 -56108-5 0  9990
2 18214  82.4994 245.0445 0013340 157.8865 202.2942 15.07742924660755
Epoch (UTC): 17 January 2018 05:09:11
Eccentricity: 0.0013340
inclination: 82.4994°
perigee height: 534 km
apogee height: 552 km
right ascension of ascending node: 245.0445°
argument of perigee: 157.8865°
revolutions per day: 15.07742924
mean anomaly at epoch: 202.2942°
orbit number at epoch: 66075

The dashed part of the orbit path shows where the satellite is in the earth's shadow,  

DLR